Orbital Elements at Epoch 2459200.5 (2020-Dec-17.0) TDB
Reference: JPL 16 (heliocentric ecliptic J2000)
Element | Value | Uncertainty (1-sigma) | Units |
e | .223721331149654 | 3.299e-08 | |
a | 2.332887101862414 | 1.1767e-08 | au |
q | 1.810970494011897 | 7.5572e-08 | au |
i | 4.966343402894006 | 4.3606e-06 | deg |
node | 145.9203797789348 | 5.7524e-05 | deg |
peri | 130.433636354085 | 5.9109e-05 | deg |
M | 115.8775152142699 | 1.4257e-05 | deg |
tp | 2458781.575574226447 (2019-Oct-25.07557423) | 4.9892e-05 | TDB |
period | 1301.484528725093 3.56 | 9.8469e-06 2.696e-08 | d yr |
n | .2766072066585751 | 2.0928e-09 | deg/d |
Q | 2.854803709712932 | 1.4399e-08 | au |
|
| | Orbit Determination Parameters
Additional Information
|